Location: Killam
(52.7910°N, 111.8608°W)
Time: 21:43:07
(UTC+00:00)

A-11 Canister half - Pass Details

Date: 17 February 2026
Orbit: 1525 x 1683 km, 47.3° (Epoch: 9 March)

Event Time Altitude Azimuth Distance (km) Brightness Sun altitude
Rises 03:44:28 0° 269° (W) 4,683 12.6 -27.9°
Reaches altitude 10° 03:47:33 10° 266° (W) 3,695 11.8 -28.3°
Maximum altitude 03:56:37 61° 189° (S) 1,699 9.0 -29.6°
Enters shadow 03:58:24 53° 148° (SSE) 1,822 9.0 -29.9°
Drops below altitude 10° 04:05:47 10° 112° (ESE) 3,727 - -30.9°
Sets 04:08:54 0° 109° (ESE) 4,726 - -31.4°
